Location: Maiden
(35.5760°N, 81.2120°W)
Time: 03:10:10
(UTC-04:00)

Meteor 2-6 Rocket - Pass Details

Date: 02 August 2020
Orbit: 804 x 916 km, 81.3° (Epoch: 12 August)

Event Time Altitude Azimuth Distance (km) Brightness Sun altitude
Rises 22:03:53 0° 357° (N) 3,341 7.9 -17.8°
Reaches altitude 10° 22:06:20 10° 3° (N) 2,416 7.0 -18.2°
Maximum altitude 22:11:39 51° 79° (E) 1,035 4.4 -19.0°
Enters shadow 22:13:32 36° 131° (SE) 1,302 4.6 -19.3°
